Powrót do katalogu

QIANFAN-64

AktywnyŁącznośćPO
NORAD 62794·PAYLOAD·🇨🇳 China

Wystrzelony Jan 23, 2025 z Taiyuan Satellite Launch Center

Loading…

Następne Przeloty (najbliższe 24 godziny)

TLE

ŚwieżeSource: Space-Track

Epoka: Sep 14, 2026, 21:58 UTC

1 62794U 25016K   26257.91539734  .00000034  00000-0  34690-4 0  9998
2 62794  88.9656  74.3244 0012206 262.8763  97.1000 13.51027246 84551

Śledź QIANFAN-64 w czasie rzeczywistym z AllMySat

Download on the App Store